Afton, WI

7:59 PM CST on January 16, 2017 (GMT -0600)
Rock County

Weather History for KJVL - November, 2013

Change the Weather History Date:

Wednesday, November 20, 2013

  Actual Average Record
Temperature  
Mean Temperature 37 °F -  
Max Temperature 42 °F 45 °F 64 °F (2003)
Min Temperature 32 °F 29 °F 10 °F (2014)
Degree Days  
Heating Degree Days 28    
Moisture  
Dew Point 30 °F    
Average Humidity 81    
Maximum Humidity 93    
Minimum Humidity 57    
Precipitation  
Precipitation 0.04 in - - ()
Sea Level Pressure  
Sea Level Pressure 30.16 in    
Wind  
Wind Speed 10 mph (SSE)    
Max Wind Speed 20 mph    
Max Gust Speed 29 mph    
Visibility 8 miles    
Events Rain    
Averages and records for this station are not official NWS values.
T = Trace of Precipitation, MM = Missing Value Source: NWS Daily Summary

Daily Weather History Graph

Daily Weather History Graph

Search for Another Location

Airport or City:

Trip Planner

Search our weather history database for the weather conditions in past years. The results will help you decide how hot, cold, wet, or windy it might be!

Date:

Astronomy

Nov. 20, 2013 Rise Set
Actual Time 6:54 AM CST 4:29 PM CST
Civil Twilight 6:23 AM CST 5:00 PM CST
Nautical Twilight 5:48 AM CST 5:34 PM CST
Astronomical Twilight 5:15 AM CST 6:08 PM CST
Moon 7:12 PM CST (11/20) 9:19 AM CST (11/20)
Length of Visible Light 10h 36m
Length of Day
9h 35m
Waning Gibbous, 91% of the Moon is Illuminated
Nov 20
Waning Gibbous
Nov 25
Last Quarter
Dec 2
New
Dec 9
First Quarter
Dec 17
Full

Hourly Weather History & Observations

Time (CST) Temp. Windchill Dew Point Humidity Pressure Visibility Wind Dir Wind Speed Gust Speed Precip Events Conditions
12:15 AM 33.8 °F 26.4 °F 30.2 °F 87% 30.23 in 10.0 mi SSE 9.2 mph - N/A   Clear
12:35 AM 33.8 °F 25.3 °F 28.4 °F 81% 30.23 in 10.0 mi SSE 11.5 mph - N/A   Clear
12:55 AM 33.8 °F 25.8 °F 28.4 °F 81% 30.22 in 10.0 mi SSE 10.4 mph - N/A   Clear
1:15 AM 33.8 °F 25.8 °F 28.4 °F 81% 30.22 in 10.0 mi SSE 10.4 mph - N/A   Clear
1:35 AM 33.8 °F 25.8 °F 28.4 °F 81% 30.23 in 10.0 mi SSE 10.4 mph - N/A   Clear
1:55 AM 33.8 °F 26.4 °F 28.4 °F 81% 30.23 in 10.0 mi SSE 9.2 mph - N/A   Clear
2:15 AM 33.8 °F 26.4 °F 28.4 °F 81% 30.23 in 10.0 mi SSE 9.2 mph - N/A   Clear
2:35 AM 33.8 °F 25.8 °F 28.4 °F 81% 30.23 in 10.0 mi SSE 10.4 mph - N/A   Clear
2:55 AM 33.8 °F 27.0 °F 28.4 °F 81% 30.24 in 10.0 mi South 8.1 mph - N/A   Clear
3:15 AM 33.8 °F 27.0 °F 28.4 °F 81% 30.23 in 10.0 mi SSE 8.1 mph - N/A   Clear
3:35 AM 32.0 °F 24.2 °F 28.4 °F 87% 30.23 in 10.0 mi SSE 9.2 mph - N/A   Clear
3:55 AM 32.0 °F 24.8 °F 28.4 °F 87% 30.23 in 10.0 mi SSE 8.1 mph - N/A   Clear
3:59 AM 33.8 °F 28.6 °F 26.6 °F 75% 30.23 in 10.0 mi SSE 5.8 mph - N/A   Clear
4:35 AM 32.0 °F 24.8 °F 28.4 °F 87% 30.23 in 10.0 mi SSE 8.1 mph - N/A   Clear
5:45 AM 33.8 °F 24.3 °F 28.4 °F 81% 30.21 in 10.0 mi SE 13.8 mph - N/A   Mostly Cloudy
6:45 AM 33.8 °F 25.3 °F 26.6 °F 75% 30.20 in 10.0 mi SE 11.5 mph - N/A   Mostly Cloudy
7:45 AM 33.8 °F 25.3 °F 26.6 °F 75% 30.19 in 10.0 mi SE 11.5 mph 17.3 mph N/A   Mostly Cloudy
8:45 AM 35.6 °F 27.1 °F 26.6 °F 70% 30.22 in 10.0 mi SSE 12.7 mph 18.4 mph N/A   Mostly Cloudy
9:45 AM 37.4 °F 29.3 °F 26.6 °F 65% 30.22 in 10.0 mi SSE 12.7 mph 18.4 mph N/A   Mostly Cloudy
10:45 AM 39.2 °F 29.6 °F 26.6 °F 61% 30.20 in 10.0 mi SSE 19.6 mph 25.3 mph N/A   Overcast
11:45 AM 41.0 °F 31.9 °F 26.6 °F 57% 30.17 in 10.0 mi SSE 19.6 mph 28.8 mph N/A   Mostly Cloudy
12:45 PM 42.8 °F 34.3 °F 28.4 °F 57% 30.13 in 10.0 mi SSE 19.6 mph 25.3 mph N/A   Overcast
1:45 PM 42.8 °F 36.2 °F 28.4 °F 57% 30.10 in 10.0 mi SE 12.7 mph - N/A   Overcast
2:45 PM 42.8 °F 34.8 °F 28.4 °F 57% 30.07 in 10.0 mi SE 17.3 mph - N/A   Overcast
3:45 PM 41.0 °F 32.5 °F 28.4 °F 61% 30.09 in 10.0 mi SSE 17.3 mph - N/A   Overcast
4:45 PM 39.2 °F 33.6 °F 30.2 °F 70% 30.08 in 10.0 mi SE 8.1 mph - N/A   Overcast
5:45 PM 39.2 °F 34.2 °F 32.0 °F 75% 30.10 in 10.0 mi SE 6.9 mph - N/A Rain Light Rain
6:45 PM 37.4 °F 33.8 °F 33.8 °F 87% 30.10 in 7.0 mi SE 4.6 mph - N/A Rain Light Rain
7:45 PM 37.4 °F 32.8 °F 33.8 °F 87% 30.11 in 7.0 mi SSE 5.8 mph - N/A Rain Light Rain
8:15 PM 35.6 °F 30.7 °F 32.0 °F 87% 30.11 in 5.0 mi SSE 5.8 mph - 0.02 in Rain Light Rain
8:35 PM 35.6 °F 30.7 °F 33.8 °F 93% 30.11 in 5.0 mi SSE 5.8 mph - 0.02 in Rain Rain
8:45 PM 37.4 °F 32.8 °F 33.8 °F 87% 30.11 in 5.0 mi SE 5.8 mph - N/A Rain Light Rain
8:55 PM 35.6 °F 31.7 °F 33.8 °F 93% 30.11 in 4.0 mi SE 4.6 mph - 0.03 in   Overcast
9:15 PM 35.6 °F 31.7 °F 33.8 °F 93% 30.11 in 4.0 mi SE 4.6 mph - N/A   Overcast
9:35 PM 35.6 °F 31.7 °F 33.8 °F 93% 30.12 in 3.0 mi SE 4.6 mph - N/A Rain Light Rain
9:55 PM 35.6 °F 31.7 °F 33.8 °F 93% 30.12 in 2.5 mi SE 4.6 mph - N/A   Light Drizzle
10:15 PM 35.6 °F 30.7 °F 33.8 °F 93% 30.12 in 2.0 mi SE 5.8 mph - 0.01 in   Overcast
10:35 PM 37.4 °F 33.8 °F 35.6 °F 93% 30.11 in 2.5 mi ESE 4.6 mph - 0.01 in   Overcast
10:55 PM 37.4 °F 32.8 °F 35.6 °F 93% 30.11 in 3.0 mi SE 5.8 mph - 0.01 in   Overcast
11:15 PM 37.4 °F 32.1 °F 35.6 °F 93% 30.10 in 4.0 mi ESE 6.9 mph - N/A   Overcast
11:35 PM 37.4 °F 32.1 °F 35.6 °F 93% 30.10 in 4.0 mi SE 6.9 mph - N/A   Overcast
11:55 PM 37.4 °F 32.8 °F 35.6 °F 93% 30.09 in 4.0 mi SE 5.8 mph - N/A   Overcast